Weather observations for the past three days for
Aquadilla, Rafael Hernandez Airport
| Date | Time (ast) | Wind (kph) | Vis. (km) | Weather | Sky Cond. | Temperature (ºC) | Relative Humidity | Wind Chill (°C) | Heat Index (°C) | Pressure | Precipitation (cm) | ||||||
|---|---|---|---|---|---|---|---|---|---|---|---|---|---|---|---|---|---|
| Air | Dwpt | 6 hour | altimeter (cm) | sea level (mb) | 1 hr | 3 hr | 6 hr | ||||||||||
| Max. | Min. | ||||||||||||||||
| 04 | 19:50 | NE 11 | 16.09 | Fair | CLR | 29 | 26 | 84% | 36 | 76.2 | 0.0 | ||||||
| 04 | 18:50 | NE 11 | 16.09 | A Few Clouds | FEW018 | 29 | 26 | 84% | 36 | 76.15 | 0.0 | ||||||
| 04 | 17:50 | NE 13 | 16.09 | Mostly Cloudy | FEW019 BKN055 | 30 | 26 | 79% | 37 | 76.17 | 0.0 | ||||||
| 04 | 16:50 | NE 13 | 16.09 | Mostly Cloudy | SCT036 BKN045 BKN060 | 30 | 26 | 79% | 37 | 76.15 | 0.0 | ||||||
| 04 | 15:50 | N 13 | 16.09 | Mostly Cloudy | SCT018 BKN028 | 30 | 26 | 79% | 37 | 76.12 | 0.0 | ||||||
| 04 | 14:50 | NE 15 | 16.09 | Mostly Cloudy | BKN035 | 30 | 26 | 79% | 37 | 76.15 | 0.0 | ||||||
| 04 | 13:50 | NE 11 | 16.09 | Fair | CLR | 30 | 25 | 75% | 36 | 76.2 | 0.0 | ||||||
| 04 | 12:50 | NE 13 | 16.09 | Partly Cloudy | SCT040 | 31 | 23 | 62% | 35 | 76.25 | 0.0 | ||||||
| 04 | 11:50 | N 9 | 16.09 | Partly Cloudy | SCT030 | 31 | 22 | 59% | 35 | 76.3 | 0.0 | ||||||
| 04 | 10:50 | NE 15 | 16.09 | Partly Cloudy | SCT030 SCT035 | 30 | 22 | 62% | 33 | 76.33 | 0.0 | ||||||
| 04 | 09:50 | N 9 | 16.09 | A Few Clouds | FEW037 | 29 | 22 | 66% | 32 | 76.3 | 0.0 | ||||||
| 04 | 08:50 | Calm | 16.09 | A Few Clouds | FEW047 | 28 | 23 | 74% | 31 | 76.3 | 0.0 | ||||||
| 04 | 07:50 | Calm | 16.09 | Fair | CLR | 27 | 24 | 84% | 30 | 76.28 | 0.0 | ||||||
| 04 | 06:50 | S 7 | 16.09 | Fair | CLR | 24 | 23 | 94% | 23 | 76.2 | 0.0 | ||||||
| 03 | 20:50 | SE 7 | 16.09 | A Few Clouds | FEW027 | 27 | 24 | 84% | 30 | 76.23 | 0.0 | ||||||
| 03 | 19:50 | E 9 | 16.09 | Fair | CLR | 28 | 25 | 84% | 33 | 76.2 | 0.0 | ||||||
| 03 | 18:50 | E 15 | 16.09 | A Few Clouds | FEW023 | 28 | 25 | 84% | 33 | 76.17 | 0.0 | ||||||
| 03 | 17:50 | E 11 | 16.09 | Mostly Cloudy | BKN070 | 29 | 25 | 79% | 35 | 76.17 | 0.0 | ||||||
| 03 | 16:50 | E 22 | 12.87 | Fair | CLR | 29 | 25 | 79% | 35 | 76.15 | 0.0 | ||||||
| 03 | 15:50 | E 26 | 12.87 | Thunderstorm in Vicinity Haze | BKN055 | 30 | 25 | 75% | 36 | 76.15 | 0.0 | ||||||
| 03 | 14:50 | E 30 | 16.09 | Thunderstorm in Vicinity | CLR | 32 | 25 | 67% | 39 | 76.17 | 0.0 | ||||||
| 03 | 13:50 | E 30 | 16.09 | Fair | CLR | 32 | 25 | 67% | 39 | 76.17 | 0.0 | ||||||
| 03 | 12:50 | NE 28 | 16.09 | Fair | CLR | 31 | 24 | 66% | 37 | 76.2 | 0.0 | ||||||
| 03 | 11:50 | E 24 | 14.48 | Fair | CLR | 31 | 24 | 66% | 37 | 76.28 | 0.0 | ||||||
| 03 | 10:50 | NE 24 | 14.48 | Fair | CLR | 31 | 25 | 70% | 38 | 76.28 | 0.0 | ||||||
| 03 | 09:50 | NE 19 | 16.09 | Partly Cloudy | SCT025 | 30 | 25 | 75% | 36 | 76.3 | 0.0 | ||||||
| 03 | 08:50 | E 13 | 16.09 | Partly Cloudy | SCT020 | 29 | 25 | 79% | 35 | 76.28 | 0.0 | ||||||
| 03 | 07:50 | E 9 | 16.09 | Fair | CLR | 28 | 25 | 84% | 33 | 76.25 | 0.0 | ||||||
| 03 | 06:50 | SE 7 | 16.09 | Fair | CLR | 26 | 24 | 89% | 28 | 76.23 | 0.0 | ||||||
| 02 | 23:50 | SE 6 | 16.09 | Fair | CLR | 26 | 25 | 94% | 28 | 76.28 | 0.0 | ||||||
| 02 | 22:50 | SE 9 | 16.09 | Fair | CLR | 26 | 24 | 89% | 28 | 76.3 | 0.0 | ||||||
| 02 | 21:50 | SE 7 | 16.09 | Fair | CLR | 26 | 24 | 89% | 28 | 76.3 | 0.0 | ||||||
| 02 | 20:50 | SE 7 | 16.09 | Fair | CLR | 27 | 25 | 89% | 31 | 76.23 | 0.0 | ||||||
| 02 | 19:50 | E 13 | 16.09 | Fair | CLR | 28 | 25 | 84% | 33 | 76.23 | 0.0 | ||||||
| 02 | 18:50 | E 11 | 16.09 | Fair | CLR | 28 | 25 | 84% | 33 | 76.2 | 0.0 | ||||||
| 02 | 17:50 | E 11 | 16.09 | Fair | CLR | 30 | 24 | 70% | 35 | 76.17 | 0.0 | ||||||
| 02 | 16:50 | E 13 | 16.09 | Fair | CLR | 30 | 24 | 70% | 35 | 76.2 | 0.0 | ||||||
| 02 | 15:50 | NE 9 | 16.09 | A Few Clouds | FEW037 | 29 | 25 | 79% | 35 | 76.2 | 0.0 | ||||||
| 02 | 14:50 | Vrbl 11 | 16.09 | Thunderstorm in Vicinity | SCT023 BKN032 | 28 | 24 | 79% | 32 | 76.28 | 0.0 | ||||||
| 02 | 13:50 | NE 26 | 16.09 | Fair | CLR | 31 | 26 | 75% | 39 | 76.23 | 0.0 | ||||||
| 02 | 12:50 | NE 28 | 16.09 | Fair | CLR | 31 | 26 | 75% | 39 | 76.28 | 0.0 | ||||||
| 02 | 11:50 | NE 22 | 16.09 | Partly Cloudy | SCT020 | 31 | 26 | 75% | 39 | 76.33 | 0.0 | ||||||
| 02 | 10:50 | NE 22 | 16.09 | Partly Cloudy | SCT025 | 30 | 26 | 79% | 37 | 76.38 | 0.0 | ||||||
| 02 | 09:50 | E 19 | 16.09 | Partly Cloudy | SCT020 | 30 | 25 | 75% | 36 | 76.4 | 0.0 | ||||||
| 02 | 08:50 | E 17 | 16.09 | A Few Clouds | FEW018 | 29 | 25 | 79% | 35 | 76.38 | 0.0 | ||||||
| 02 | 07:50 | E 11 | 16.09 | Fair | CLR | 27 | 25 | 89% | 31 | 76.35 | 0.0 | ||||||
| 02 | 06:50 | Calm | 16.09 | Fair | CLR | 25 | 24 | 94% | 26 | 76.3 | 0.0 | ||||||
| 02 | 00:50 | Calm | 16.09 | Overcast | OVC085 | 26 | 25 | 94% | 28 | 76.35 | 0.0 | ||||||
| 01 | 23:50 | E 7 | 16.09 | Mostly Cloudy | BKN090 | 26 | 25 | 94% | 28 | 76.35 | 0.0 | ||||||
| 01 | 22:50 | E 9 | 16.09 | Overcast | OVC090 | 26 | 24 | 89% | 28 | 76.35 | 0.0 | ||||||
| 01 | 21:50 | E 9 | 16.09 | Mostly Cloudy | BKN090 | 26 | 24 | 89% | 28 | 76.35 | 0.0 | ||||||
| 01 | 20:50 | E 11 | 14.48 | A Few Clouds | FEW080 | 26 | 24 | 89% | 28 | 76.3 | 0.0 | ||||||
| Date | Time (ast) | Wind (kph) | Vis. (km) | Weather | Sky Cond. | Air | Dwpt | Max. | Min. | Relative Humidity | Wind Chill (°C) | Heat Index (°C) | altimeter (cm) | sea level (mb) | 1 hr | 3 hr | 6 hr |
| 6 hour | |||||||||||||||||
| Temperature (ºC) | Pressure | Precipitation (cm) | |||||||||||||||